Weather History for KOLY - October, 2011

Change the Weather History Date:

Saturday, October 8, 2011

  Actual Average (KEVV) Record (KEVV)
Temperature  
Mean Temperature 68 °F 60 °F  
Max Temperature 84 °F 73 °F 92 °F (2007)
Min Temperature 53 °F 48 °F 28 °F (1987)
Degree Days  
Heating Degree Days 0 6  
Month to date heating degree days 44  
Since 1 July heating degree days 91  
Cooling Degree Days 4 1  
Month to date cooling degree days 15  
Year to date cooling degree days 1381  
Growing Degree Days 18 (Base 50)    
Moisture  
Dew Point 53 °F    
Average Humidity 65    
Maximum Humidity 100    
Minimum Humidity 27    
Precipitation  
Precipitation 0.00 in 0.10 in 2.45 in (2009)
Month to date precipitation 0.84  
Year to date precipitation 34.81  
Snow  
Snow 0.00 in 0.00 in T in (1992)
Month to date snowfall 0.0  
Since 1 July snowfall 0.0  
Since 1 September snowfall 0.0  
Snow Depth -    
Sea Level Pressure  
Sea Level Pressure 30.30 in    
Wind  
Wind Speed 4 mph (SSE)    
Max Wind Speed 13 mph    
Max Gust Speed 18 mph    
Visibility 9 miles    
Events      
T = Trace of Precipitation, MM = Missing Value Source: NWS Daily Summary

Daily Weather History Graph

Daily Weather History Graph

Search for Another Location

Airport or City:

Trip Planner

Search our weather history database for the weather conditions in past years. The results will help you decide how hot, cold, wet, or windy it might be!

Date:

Astronomy

Oct. 08, 2011 Rise Set
Actual Time 6:54 AM CDT 6:25 PM CDT
Civil Twilight 6:28 AM CDT 6:51 PM CDT
Nautical Twilight 5:57 AM CDT 7:22 PM CDT
Astronomical Twilight 5:26 AM CDT 7:53 PM CDT
Moon 4:34 PM CDT (10/8) 3:43 AM CDT (10/8)
Length of Visible Light 12h 23m
Length of Day
11h 30m
Waxing Gibbous, 90% of the Moon is Illuminated
Oct 8
Waxing Gibbous
Oct 11
Full
Oct 19
Last Quarter
Oct 26
New
Nov 2
First Quarter

Hourly Weather History & Observations

Time (CDT) Temp. Heat Index Dew Point Humidity Pressure Visibility Wind Dir Wind Speed Gust Speed Precip Events Conditions
12:15 AM 57.2 °F - 57.2 °F 100% 30.27 in 10.0 mi ESE 4.6 mph - N/A   Clear
12:35 AM 57.2 °F - 57.2 °F 100% 30.27 in 10.0 mi ESE 3.5 mph - N/A   Clear
12:55 AM 57.2 °F - 55.4 °F 94% 30.27 in 10.0 mi ESE 3.5 mph - N/A   Clear
1:15 AM 55.4 °F - 55.4 °F 100% 30.27 in 10.0 mi ESE 4.6 mph - N/A   Clear
1:35 AM 55.4 °F - 55.4 °F 100% 30.27 in 10.0 mi Calm Calm - N/A   Clear
1:55 AM 57.2 °F - 57.2 °F 100% 30.27 in 10.0 mi Calm Calm - N/A   Clear
2:15 AM 59.0 °F - 57.2 °F 94% 30.27 in 10.0 mi Calm Calm - N/A   Clear
2:35 AM 55.4 °F - 53.6 °F 94% 30.27 in 10.0 mi Calm Calm - N/A   Clear
2:55 AM 53.6 °F - 53.6 °F 100% 30.27 in 10.0 mi Calm Calm - N/A   Clear
3:15 AM 55.4 °F - 55.4 °F 100% 30.27 in 7.0 mi Calm Calm - N/A   Clear
3:35 AM 55.4 °F - 55.4 °F 100% 30.27 in 10.0 mi Calm Calm - N/A   Clear
3:55 AM 55.4 °F - 55.4 °F 100% 30.27 in 5.0 mi Calm Calm - N/A   Clear
4:15 AM 55.4 °F - 55.4 °F 100% 30.28 in 7.0 mi Calm Calm - N/A   Clear
4:35 AM 55.4 °F - 55.4 °F 100% 30.28 in 5.0 mi Calm Calm - N/A   Clear
4:55 AM 53.6 °F - 53.6 °F 100% 30.28 in 5.0 mi Calm Calm - N/A   Clear
5:15 AM 53.6 °F - 53.6 °F 100% 30.29 in 2.0 mi Calm Calm - N/A   Clear
5:35 AM 53.6 °F - 53.6 °F 100% 30.29 in 2.5 mi Calm Calm - N/A   Clear
5:55 AM 53.6 °F - 53.6 °F 100% 30.30 in 4.0 mi Calm Calm - N/A   Clear
6:15 AM 53.6 °F - 53.6 °F 100% 30.31 in 5.0 mi Calm Calm - N/A   Clear
6:35 AM 55.4 °F - 55.4 °F 100% 30.32 in 5.0 mi Calm Calm - N/A   Clear
6:55 AM 57.2 °F - 57.2 °F 100% 30.32 in 7.0 mi Calm Calm - N/A   Clear
7:15 AM 57.2 °F - 57.2 °F 100% 30.33 in 7.0 mi Calm Calm - N/A   Clear
7:35 AM 60.8 °F - 59.0 °F 94% 30.33 in 7.0 mi SSE 3.5 mph - N/A   Clear
7:55 AM 62.6 °F - 59.0 °F 88% 30.34 in 7.0 mi SSE 3.5 mph - N/A   Clear
8:15 AM 64.4 °F - 59.0 °F 83% 30.35 in 10.0 mi Calm Calm - N/A   Clear
8:35 AM 68.0 °F - 57.2 °F 68% 30.35 in 10.0 mi South 8.1 mph - N/A   Clear
8:55 AM 69.8 °F - 57.2 °F 64% 30.35 in 10.0 mi South 8.1 mph - N/A   Clear
9:15 AM 71.6 °F - 55.4 °F 57% 30.36 in 10.0 mi South 8.1 mph - N/A   Clear
9:35 AM 73.4 °F - 55.4 °F 53% 30.36 in 10.0 mi South 9.2 mph - N/A   Clear
9:55 AM 73.4 °F - 55.4 °F 53% 30.36 in 10.0 mi South 9.2 mph 17.3 mph N/A   Clear
10:15 AM 75.2 °F - 55.4 °F 50% 30.36 in 10.0 mi South 9.2 mph 17.3 mph N/A   Clear
10:35 AM 77.0 °F - 53.6 °F 44% 30.36 in 10.0 mi South 9.2 mph - N/A   Clear
10:55 AM 78.8 °F - 53.6 °F 42% 30.35 in 10.0 mi South 12.7 mph 16.1 mph N/A   Clear
11:15 AM 78.8 °F - 53.6 °F 42% 30.35 in 10.0 mi SSW 8.1 mph 16.1 mph N/A   Clear
11:35 AM 80.6 °F 80.3 °F 53.6 °F 39% 30.35 in 10.0 mi South 11.5 mph 17.3 mph N/A   Clear
11:55 AM 80.6 °F - 51.8 °F 37% 30.34 in 10.0 mi South 9.2 mph - N/A   Clear
12:15 PM 80.6 °F 80.3 °F 53.6 °F 39% 30.33 in 10.0 mi South 6.9 mph - N/A   Clear
12:35 PM 82.4 °F - 51.8 °F 35% 30.33 in 10.0 mi SE 11.5 mph - N/A   Clear
12:55 PM 82.4 °F - 51.8 °F 35% 30.32 in 10.0 mi SSE 4.6 mph - N/A   Clear
1:15 PM 82.4 °F - 51.8 °F 35% 30.31 in 10.0 mi SSE 5.8 mph - N/A   Clear
1:35 PM 84.2 °F - 51.8 °F 33% 30.30 in 10.0 mi South 8.1 mph 16.1 mph N/A   Clear
1:55 PM 84.2 °F - 50.0 °F 30% 30.29 in 10.0 mi SSE 8.1 mph - N/A   Clear
2:15 PM 84.2 °F - 48.2 °F 29% 30.29 in 7.0 mi SSE 8.1 mph - N/A   Clear
2:35 PM 84.2 °F - 46.4 °F 27% 30.29 in 5.0 mi SSE 12.7 mph 18.4 mph N/A   Haze
2:55 PM 84.2 °F - 46.4 °F 27% 30.28 in 10.0 mi South 11.5 mph - N/A   Clear
3:15 PM 84.2 °F - 46.4 °F 27% 30.28 in 10.0 mi SE 9.2 mph - N/A   Clear
3:35 PM 82.4 °F - 46.4 °F 28% 30.27 in 10.0 mi SSE 8.1 mph - N/A   Clear
3:55 PM 82.4 °F - 46.4 °F 28% 30.27 in 10.0 mi South 11.5 mph - N/A   Clear
4:15 PM 82.4 °F - 46.4 °F 28% 30.27 in 10.0 mi SSE 9.2 mph - N/A   Clear
4:35 PM 82.4 °F - 46.4 °F 28% 30.27 in 10.0 mi SSE 9.2 mph - N/A   Clear
4:55 PM 82.4 °F - 48.2 °F 30% 30.27 in 10.0 mi SSE 8.1 mph - N/A   Clear
5:15 PM 80.6 °F - 48.2 °F 32% 30.27 in 10.0 mi South 8.1 mph - N/A   Clear
5:35 PM 78.8 °F - 48.2 °F 34% 30.27 in 10.0 mi SSE 6.9 mph - N/A   Clear
5:55 PM 75.2 °F - 50.0 °F 41% 30.27 in 10.0 mi SE 4.6 mph - N/A   Clear
6:15 PM 73.4 °F - 50.0 °F 44% 30.27 in 10.0 mi SE 4.6 mph - N/A   Clear
6:35 PM 69.8 °F - 50.0 °F 49% 30.27 in 10.0 mi ESE 3.5 mph - N/A   Clear
6:55 PM 69.8 °F - 50.0 °F 49% 30.27 in 10.0 mi Calm Calm - N/A   Clear
7:15 PM 66.2 °F - 51.8 °F 60% 30.28 in 10.0 mi East 3.5 mph - N/A   Clear
7:35 PM 66.2 °F - 51.8 °F 60% 30.28 in 10.0 mi East 3.5 mph - N/A   Clear
7:55 PM 64.4 °F - 51.8 °F 64% 30.28 in 10.0 mi East 3.5 mph - N/A   Clear
8:15 PM 62.6 °F - 51.8 °F 68% 30.28 in 10.0 mi East 4.6 mph - N/A   Clear
8:35 PM 62.6 °F - 51.8 °F 68% 30.28 in 10.0 mi East 5.8 mph - N/A   Clear
8:55 PM 62.6 °F - 51.8 °F 68% 30.29 in 10.0 mi ESE 3.5 mph - N/A   Clear
9:15 PM 62.6 °F - 51.8 °F 68% 30.28 in 10.0 mi Calm Calm - N/A   Clear
9:35 PM 60.8 °F - 51.8 °F 72% 30.29 in 10.0 mi Calm Calm - N/A   Clear
9:55 PM 60.8 °F - 51.8 °F 72% 30.29 in 10.0 mi Calm Calm - N/A   Clear
10:15 PM 60.8 °F - 51.8 °F 72% 30.29 in 10.0 mi Calm Calm - N/A   Clear
10:35 PM 57.2 °F - 51.8 °F 82% 30.29 in 10.0 mi Calm Calm - N/A   Clear
10:55 PM 57.2 °F - 50.0 °F 77% 30.29 in 10.0 mi Calm Calm - N/A   Clear
11:15 PM 55.4 °F - 50.0 °F 82% 30.29 in 10.0 mi Calm Calm - N/A   Clear
11:35 PM 53.6 °F - 48.2 °F 82% 30.30 in 10.0 mi Calm Calm - N/A   Clear
11:55 PM 55.4 °F - 48.2 °F 77% 30.30 in 10.0 mi Calm Calm - N/A   Clear